STARLINK-2356, 47896

Orbit data source: Space-Track

STARLINK-2356, 47896 is a payload satellite owned by SpaceX/Seattle (US) in LEO that was launched on Sun, 14 Mar 2021 UTC via an FALCON 9 launch vehicle from the Air Force Eastern Test Range (AFETR). Payload-class satellites include a variety of spacecraft equipped with specific instruments for various scientific and technological missions. These include communications satellites like Starlink; space stations such as the ISS; scientific satellites like the Hubble; Earth observation satellites from companies like Planet Labs, Umbra, and HawkEye 360; GPS; miniature CubeSats for education and research; and military/defense satellites.

Loading next visibility...
Identifier
47896, 2021-021AN
Orbit
LEO
Country
Flag of USUS
Related business
Manufacturer
SpaceX/Seattle
Mission
Operational Commercial Communications
Bus & Motor
STARLINK, Unknown motor
Mass
260 kg wet, ~248 kg dry
Launch date (UTC)
2021-03-14 (5 years ago)
Launch vehicle
FALCON 9
Launch site
Air Force Eastern Test Range (AFETR)
Object type
Payload
Rocket body
Debris
Shape & HBR
Box + 1 Pan, 10.1 m
Radar Cross Section
13.562 m², Large (>1 m²)

Expand to show TLE details & history
Last TLE update: 2 days ago

TLE from 2 days ago
0 STARLINK-2356
1 47896U 21021AN  26171.26628205 -.00000682  00000-0 -10199-4 0  9990
2 47896  53.1582 163.7577 0001097 101.6891 258.4234 15.31706005291737
Epoch: 2026-06-20T06:23Z
TLE epoch observation values (Epoch: 2026-06-20T06:23:26.769Z)
Latitude
0.00003°
Longitude
159.41282°
Altitude
471.773 km
Speed
7.631 km/s
True Right ascension
10h 55m 01s
True Declination
0° 00' 00"
Sunlit
Object was in daylight at epoch
Visualization orbit readout
Latitude
Unknown
Longitude
Unknown
Altitude
Unknown
Speed
Unknown
Apparent Right ascension
Unknown
Apparent Declination
Unknown
Sunlit
N/A
Visualization observer readout
Local Sidereal Time
21:25:26
Azimuth
Unknown
Elevation
Unknown
Doppler factor
Unknown
Orbital elements
Apogee altitude
471.73 km
Perigee altitude
470.228 km
Semi-major axis
6,849.116 km
Eccentricity
0.00011
Inclination
53.1582°
RAAN
163.7577°
Arg. of periapsis
101.6891°
True anomaly
258.41109°
Mean anomaly
258.4234°
Eccentric anomaly
258.41724°
Mean motion
3.82905 °/min
Orbital period
94.02 mins
BSTAR
-0.000010199
Loading maneuver chart data...
Computing Atmospheric mass density...

Documentation

Showing up to 5 results
|